Flag for Hungary Weather past 2 weeks in Pécs, Hungary

Now
85 °F

Passing clouds.


Feels Like: 88 °F
Forecast: 74 / 89 °F
Wind: 3 mph from East

Location: Pecs / Pogany

Current Time: Aug 4, 2015 at 6:21:10 PM

Latest Report: Aug 4, 2015 at 5:00 PM


Visibility: 25 mi

Pressure: 29.94 "Hg

Humidity: 54%

Dew point: 67 °F

Location of PécsLocation

Historic Weather in Pécs — Graph

°F

Pécs temperature yesterday

Maximum temperature yesterday: 84 °F (at 3:00 PM)
Minimum temperature yesterday: 65 °F (at 4:00 AM)
Average temperature yesterday: 75 °F

Past Weeks' High & Low Weather Summary

 TemperatureHumidityPressure
High96 °F (Jul 23, 4:00 PM)94% (Jul 27, 10:00 PM)30.09 "Hg (Jul 27, 10:00 PM)
Low57 °F (Aug 1, 4:00 AM)32% (Jul 23, 4:00 PM)29.70 "Hg (Jul 25, 5:00 PM)
Average73 °F63%29.92 "Hg
* Reported Jul 20 5:00 PM — Aug 4 5:00 PM, Pécs, Weather by CustomWeather, © 2015

Note: Actual official high and low records may vary slightly from our data, if they occured in-between our weather recording intervals... More about our weather records

Advertising

Pécs weather history for previous 24 hours

 ConditionsComfort  
Time TempWeatherWind HumidityBarometerVisibility
5:00 PM
Tue, Aug 4
85 °FPassing clouds.3 mph54%29.94 "Hg25 mi
4:00 PM85 °FPassing clouds.3 mph50%29.95 "Hg25 mi
3:00 PM84 °FScattered clouds.5 mph53%29.96 "Hg25 mi
2:00 PM83 °FPassing clouds.3 mph53%29.98 "Hg25 mi
1:00 PM83 °FPassing clouds.5 mph55%29.99 "Hg25 mi
12:00 PM82 °FPassing clouds.5 mph58%30.01 "Hg25 mi
11:00 AM79 °FPassing clouds.3 mph62%30.02 "Hg16 mi
10:00 AM77 °FPassing clouds.2 mph69%30.02 "Hg16 mi
9:00 AM74 °FPassing clouds.2 mph75%30.02 "Hg16 mi
8:00 AM71 °FPassing clouds.2 mph82%30.02 "Hg9 mi
7:00 AM70 °FPassing clouds.2 mph85%30.03 "Hg7 mi
6:00 AM68 °FPassing clouds.2 mph86%30.01 "Hg9 mi
5:00 AM69 °FPassing clouds.2 mph86%30.01 "Hg12 mi
4:00 AM69 °FPassing clouds.3 mph87%30.02 "Hg12 mi
3:00 AM69 °FClear.2 mph84%30.03 "Hg12 mi
2:00 AM71 °FClear.2 mph80%30.03 "Hg12 mi
1:00 AM71 °FClear.1 mph79%30.04 "Hg12 mi
12:00 AM71 °FPassing clouds.1 mph77%30.04 "Hg19 mi
11:00 PM
Mon, Aug 3
72 °FPassing clouds.3 mph78%30.03 "Hg19 mi
10:00 PM74 °FPassing clouds.3 mph76%30.04 "Hg19 mi
9:00 PM75 °FPassing clouds.2 mph67%30.03 "Hg19 mi
8:00 PM75 °FPartly sunny.1 mph64%30.03 "Hg19 mi
7:00 PM80 °FOvercast.3 mph54%30.02 "Hg19 mi
6:00 PM81 °FOvercast.2 mph60%30.02 "Hg19 mi
Weather by CustomWeather, © 2015

See weather overviewHow to use our weather pages